Tracking 23762 objects as of 20-Oct-2021
HD Live streaming from Space Station
objects crossing your sky now

CICERO 8

Track CICERO 8 now!
10-day predictions


NORAD ID: 43737
Int'l Code: 2018-096U
Perigee: 459.8 km
Apogee: 486.3 km
Inclination: 97.4 °
Period: 93.9 minutes
Semi major axis: 6844 km
RCS: Unknown
Launch date: November 29, 2018
Source: United States (US)
Launch site: SRIHARIKOTA (SRI)
aabbcc
Your satellite tracking list
Your tracking list is empty




NASA's NSSDC Master Catalog

Two Line Element Set (TLE):
1 43737U 18096U   21292.45261191  .00008694  00000-0  27090-3 0  9991
2 43737  97.3804  12.1694 0019364 186.9298 173.1680 15.33316918161303
Source of the keplerian elements: AFSPC